Houston Intercontinental, TX

4:40 PM CDT on May 25, 2017 (GMT -0500)
George Bush Intercontinental-Houston Airport

Weather History for KIAH - December, 2012

Change the Weather History Date:

Friday, December 28, 2012

  Actual Average Record
Temperature  
Mean Temperature 52 °F -  
Max Temperature 60 °F 61 °F 82 °F (2016)
Min Temperature 44 °F 40 °F 30 °F (1997)
Degree Days  
Heating Degree Days 13    
Growing Degree Days 2 (Base 50)    
Moisture  
Dew Point 48 °F    
Average Humidity 84    
Maximum Humidity 100    
Minimum Humidity 58    
Precipitation  
Precipitation 0.12 in - - ()
Sea Level Pressure  
Sea Level Pressure 29.90 in    
Wind  
Wind Speed 8 mph (NNW)    
Max Wind Speed 21 mph    
Max Gust Speed 31 mph    
Visibility 6 miles    
Events Rain    
Averages and records for this station are not official NWS values.
T = Trace of Precipitation, MM = Missing Value Source: NWS Daily Summary

Daily Weather History Graph

Daily Weather History Graph

Search for Another Location

Airport or City:

Trip Planner

Search our weather history database for the weather conditions in past years. The results will help you decide how hot, cold, wet, or windy it might be!

Date:

Astronomy

Dec. 28, 2012 Rise Set
Actual Time 7:16 AM CST 5:30 PM CST
Civil Twilight 6:49 AM CST 5:56 PM CST
Nautical Twilight 6:20 AM CST 6:26 PM CST
Astronomical Twilight 5:50 AM CST 6:55 PM CST
Moon 6:03 PM CST (12/28) 7:14 AM CST (12/28)
Length of Visible Light 11h 06m
Length of Day
10h 14m
Full, 100% of the Moon is Illuminated
Dec 28
Full
Jan 4
Last Quarter
Jan 11
New
Jan 18
First Quarter
Jan 26
Full

Hourly Weather History & Observations

Time (CST) Temp. Windchill Dew Point Humidity Pressure Visibility Wind Dir Wind Speed Gust Speed Precip Events Conditions
12:53 AM 54.0 °F - 54.0 °F 100% 29.83 in 1.0 mi East 6.9 mph - 0.00 in   Overcast
1:53 AM 55.0 °F - 55.0 °F 100% 29.82 in 1.0 mi NNE 3.5 mph - 0.02 in   Overcast
2:53 AM 55.0 °F - 55.0 °F 100% 29.81 in 1.0 mi NE 5.8 mph - N/A   Overcast
3:53 AM 55.0 °F - 55.0 °F 100% 29.78 in 1.0 mi ENE 3.5 mph - 0.00 in   Overcast
4:50 AM 55.4 °F - 55.4 °F 100% 29.77 in 1.0 mi East 3.5 mph - 0.10 in Rain Light Rain
4:53 AM 55.9 °F - 55.9 °F 100% 29.77 in 1.0 mi Calm Calm - 0.10 in Rain Light Rain
5:08 AM 55.4 °F - 55.4 °F 100% 29.77 in 1.0 mi Calm Calm - 0.00 in   Overcast
5:42 AM 57.2 °F - 55.4 °F 94% 29.77 in 3.0 mi North 3.5 mph - 0.00 in   Overcast
5:53 AM 57.0 °F - 55.9 °F 96% 29.78 in 3.0 mi NNE 5.8 mph - 0.00 in   Overcast
6:42 AM 57.2 °F - 55.4 °F 94% 29.79 in 3.0 mi Calm Calm - 0.00 in Rain Light Rain
6:53 AM 57.0 °F - 55.9 °F 96% 29.79 in 3.0 mi Calm Calm - 0.00 in   Overcast
7:01 AM 57.2 °F - 57.2 °F 100% 29.79 in 1.8 mi Calm Calm - N/A   Overcast
7:35 AM 57.2 °F - 57.2 °F 100% 29.81 in 1.0 mi WNW 8.1 mph - 0.00 in Rain Light Rain
7:53 AM 57.0 °F - 55.9 °F 96% 29.83 in 1.0 mi WNW 11.5 mph 19.6 mph 0.00 in   Overcast
8:08 AM 55.4 °F - 55.4 °F 100% 29.83 in 2.0 mi WNW 10.4 mph - N/A   Overcast
8:33 AM 55.4 °F - 53.6 °F 94% 29.85 in 4.0 mi NW 13.8 mph - N/A   Overcast
8:53 AM 53.1 °F - 52.0 °F 96% 29.86 in 8.0 mi NW 11.5 mph - N/A   Overcast
9:12 AM 53.6 °F - 51.8 °F 94% 29.87 in 8.0 mi NW 10.4 mph - N/A   Overcast
9:53 AM 53.1 °F - 51.1 °F 93% 29.87 in 10.0 mi NW 8.1 mph - N/A   Overcast
10:25 AM 53.6 °F - 51.8 °F 94% 29.87 in 10.0 mi NW 8.1 mph - N/A   Overcast
10:53 AM 55.0 °F - 51.1 °F 86% 29.87 in 10.0 mi NW 13.8 mph - N/A   Mostly Cloudy
11:53 AM 57.9 °F - 50.0 °F 75% 29.86 in 10.0 mi WNW 16.1 mph 23.0 mph N/A   Mostly Cloudy
12:53 PM 57.0 °F - 46.9 °F 69% 29.85 in 10.0 mi NW 17.3 mph 20.7 mph N/A   Mostly Cloudy
1:53 PM 59.0 °F - 46.0 °F 62% 29.86 in 10.0 mi NNW 15.0 mph 24.2 mph N/A   Mostly Cloudy
2:53 PM 59.0 °F - 45.0 °F 60% 29.88 in 10.0 mi NW 20.7 mph 29.9 mph N/A   Mostly Cloudy
3:18 PM 55.4 °F - 44.6 °F 67% 29.90 in 10.0 mi NNW 18.4 mph 29.9 mph N/A   Mostly Cloudy
3:53 PM 53.1 °F - 43.0 °F 69% 29.94 in 10.0 mi NW 18.4 mph 27.6 mph N/A   Overcast
4:53 PM 51.1 °F - 42.1 °F 71% 29.97 in 10.0 mi NNW 16.1 mph - N/A   Mostly Cloudy
5:53 PM 50.0 °F - 39.9 °F 68% 30.00 in 10.0 mi NNW 16.1 mph - N/A   Mostly Cloudy
6:53 PM 46.9 °F - 37.0 °F 68% 30.05 in 10.0 mi NNW 19.6 mph 27.6 mph N/A   Scattered Clouds
7:35 PM 46.4 °F 39.0 °F 37.4 °F 71% 30.07 in 10.0 mi NNW 19.6 mph 31.1 mph N/A   Mostly Cloudy
7:53 PM 46.0 °F 39.9 °F 37.0 °F 71% 30.08 in 10.0 mi NNW 13.8 mph 24.2 mph N/A   Mostly Cloudy
8:53 PM 45.0 °F 39.7 °F 36.0 °F 71% 30.11 in 10.0 mi NNW 10.4 mph 24.2 mph N/A   Mostly Cloudy
9:53 PM 45.0 °F 38.5 °F 36.0 °F 71% 30.14 in 10.0 mi NNW 13.8 mph 21.9 mph N/A   Overcast
10:53 PM 45.0 °F 39.7 °F 36.0 °F 71% 30.15 in 10.0 mi NNW 10.4 mph - N/A   Overcast
11:53 PM 44.1 °F 37.4 °F 34.0 °F 68% 30.16 in 10.0 mi NW 13.8 mph - N/A   Overcast